2HELI EGGD-EGJB

Flight info

Callsign 2HELI
Flight time 0h 51m
Altitude 5500
Route CHEW VALLEY DCT WELLS MAST DCT VLN DCT OTMET DCT CASQUETS DCT FORT LE MARCHANT
Aircraft H160/L-SBDGRY/S

Departure

Time 2026-04-26 13:30
Airport Bristol Airport (EGGD)

Arrival

Time 2026-04-26 14:21
Airport Guernsey Airport (EGJB)
Time Latitude Longitude Altitude Speed Heading
2026-04-26 13:20 51.38556 -2.71470 608 ft 0 kts 356°
2026-04-26 13:27 51.38557 -2.71471 608 ft 1 kts 339°
2026-04-26 13:27 51.38549 -2.71488 618 ft 4 kts 172°
2026-04-26 13:28 51.38527 -2.71477 612 ft 3 kts 165°
2026-04-26 13:28 51.38500 -2.71466 611 ft 5 kts 171°
2026-04-26 13:28 51.38465 -2.71464 608 ft 6 kts 192°
2026-04-26 13:28 51.38422 -2.71529 604 ft 7 kts 232°
2026-04-26 13:29 51.38381 -2.71517 601 ft 9 kts 148°
2026-04-26 13:29 51.38341 -2.71477 601 ft 11 kts 148°
2026-04-26 13:29 51.38289 -2.71374 598 ft 8 kts 88°
2026-04-26 13:29 51.38297 -2.71267 650 ft 11 kts 89°
2026-04-26 13:30 51.38314 -2.70834 885 ft 65 kts 94°
2026-04-26 13:30 51.38326 -2.69909 1176 ft 93 kts 92°
2026-04-26 13:30 51.38240 -2.68775 1347 ft 104 kts 116°
2026-04-26 13:30 51.37823 -2.67865 1711 ft 99 kts 137°
2026-04-26 13:31 51.37166 -2.67237 1764 ft 119 kts 155°
2026-04-26 13:31 51.36389 -2.66616 1855 ft 128 kts 155°
2026-04-26 13:31 51.35625 -2.65903 1882 ft 130 kts 147°
2026-04-26 13:31 51.34916 -2.65010 1913 ft 130 kts 143°
2026-04-26 13:32 51.34206 -2.64089 1955 ft 133 kts 141°
2026-04-26 13:32 51.33490 -2.63127 1962 ft 135 kts 141°
2026-04-26 13:32 51.32778 -2.62141 1928 ft 136 kts 142°
2026-04-26 13:32 51.32103 -2.61125 1995 ft 130 kts 134°
2026-04-26 13:33 51.31549 -2.59975 2031 ft 131 kts 129°
2026-04-26 13:33 51.30995 -2.58829 2061 ft 130 kts 131°
2026-04-26 13:33 51.30416 -2.57714 2122 ft 132 kts 133°
2026-04-26 13:33 51.29812 -2.56579 2105 ft 136 kts 134°
2026-04-26 13:34 51.29102 -2.55595 2059 ft 137 kts 151°
2026-04-26 13:34 51.28196 -2.55155 2000 ft 137 kts 173°
2026-04-26 13:34 51.27260 -2.55120 2058 ft 133 kts 180°
2026-04-26 13:34 51.26652 -2.55200 2106 ft 132 kts 186°
2026-04-26 13:35 51.25459 -2.55559 2150 ft 130 kts 189°
2026-04-26 13:35 51.24559 -2.55826 2215 ft 136 kts 189°
2026-04-26 13:35 51.23596 -2.56100 2095 ft 142 kts 188°
2026-04-26 13:35 51.22631 -2.56335 2065 ft 139 kts 187°
2026-04-26 13:36 51.21678 -2.56524 2000 ft 138 kts 185°
2026-04-26 13:36 51.20722 -2.56666 1996 ft 138 kts 184°
2026-04-26 13:36 51.19766 -2.56761 2160 ft 137 kts 182°
2026-04-26 13:36 51.18826 -2.56994 2198 ft 137 kts 192°
2026-04-26 13:37 51.17901 -2.57385 2260 ft 138 kts 192°
2026-04-26 13:37 51.16936 -2.57759 2270 ft 146 kts 192°
2026-04-26 13:37 51.15939 -2.58091 2248 ft 149 kts 190°
2026-04-26 13:37 51.14903 -2.58297 2250 ft 152 kts 183°
2026-04-26 13:38 51.13842 -2.58332 2127 ft 153 kts 179°
2026-04-26 13:38 51.12796 -2.58236 2005 ft 148 kts 174°
2026-04-26 13:38 51.11786 -2.58043 2031 ft 145 kts 173°
2026-04-26 13:38 51.10797 -2.57833 1965 ft 142 kts 172°
2026-04-26 13:39 51.09842 -2.57641 2060 ft 136 kts 174°
2026-04-26 13:39 51.08909 -2.57460 2121 ft 136 kts 172°
2026-04-26 13:39 51.07959 -2.57264 2144 ft 140 kts 172°
2026-04-26 13:39 51.07008 -2.56974 2073 ft 138 kts 167°
2026-04-26 13:40 51.06084 -2.56567 2111 ft 138 kts 162°
2026-04-26 13:40 51.05159 -2.56116 2109 ft 140 kts 165°
2026-04-26 13:40 51.04204 -2.55730 2009 ft 143 kts 168°
2026-04-26 13:40 51.03215 -2.55548 2092 ft 143 kts 176°
2026-04-26 13:41 51.02237 -2.55578 2071 ft 142 kts 182°
2026-04-26 13:41 51.01254 -2.55643 2126 ft 140 kts 179°
2026-04-26 13:41 51.00279 -2.55653 2086 ft 144 kts 178°
2026-04-26 13:41 50.99264 -2.55599 2075 ft 147 kts 176°
2026-04-26 13:42 50.98243 -2.55475 1967 ft 145 kts 172°
2026-04-26 13:42 50.97264 -2.55176 1977 ft 142 kts 165°
2026-04-26 13:42 50.96335 -2.54681 2037 ft 140 kts 157°
2026-04-26 13:42 50.95462 -2.54042 2113 ft 137 kts 155°
2026-04-26 13:43 50.94579 -2.53501 2080 ft 135 kts 163°
2026-04-26 13:43 50.93656 -2.53196 2157 ft 136 kts 171°
2026-04-26 13:43 50.92716 -2.53072 2273 ft 135 kts 174°
2026-04-26 13:43 50.91768 -2.52993 2266 ft 139 kts 176°
2026-04-26 13:44 50.90801 -2.52879 2312 ft 140 kts 173°
2026-04-26 13:44 50.89836 -2.52738 2312 ft 139 kts 173°
2026-04-26 13:44 50.88881 -2.52581 2345 ft 138 kts 172°
2026-04-26 13:44 50.87917 -2.52390 2396 ft 141 kts 171°
2026-04-26 13:45 50.86937 -2.52143 2456 ft 146 kts 169°
2026-04-26 13:45 50.85927 -2.51797 2415 ft 150 kts 166°
2026-04-26 13:45 50.84915 -2.51392 2447 ft 148 kts 166°
2026-04-26 13:45 50.83915 -2.51061 2537 ft 145 kts 168°
2026-04-26 13:46 50.82932 -2.50729 2590 ft 143 kts 167°
2026-04-26 13:46 50.81977 -2.50405 2727 ft 141 kts 167°
2026-04-26 13:46 50.81015 -2.50070 2774 ft 143 kts 167°
2026-04-26 13:46 50.80038 -2.49699 2831 ft 142 kts 165°
2026-04-26 13:47 50.79116 -2.49245 3093 ft 136 kts 160°
2026-04-26 13:47 50.78248 -2.48698 3323 ft 133 kts 160°
2026-04-26 13:47 50.77386 -2.48229 3624 ft 132 kts 162°
2026-04-26 13:47 50.76472 -2.47802 3674 ft 143 kts 166°
2026-04-26 13:48 50.75476 -2.47424 3703 ft 151 kts 169°
2026-04-26 13:48 50.74429 -2.47128 3717 ft 154 kts 172°
2026-04-26 13:48 50.73357 -2.46881 3734 ft 157 kts 172°
2026-04-26 13:48 50.72280 -2.46568 3705 ft 158 kts 169°
2026-04-26 13:49 50.71200 -2.46186 3637 ft 160 kts 167°
2026-04-26 13:49 50.70116 -2.45758 3590 ft 161 kts 167°
2026-04-26 13:49 50.69031 -2.45352 3565 ft 160 kts 168°
2026-04-26 13:49 50.67946 -2.44972 3527 ft 160 kts 169°
2026-04-26 13:50 50.66856 -2.44615 3492 ft 160 kts 169°
2026-04-26 13:50 50.65779 -2.44287 3447 ft 160 kts 171°
2026-04-26 13:50 50.64684 -2.43978 3450 ft 160 kts 171°
2026-04-26 13:50 50.63590 -2.43694 3514 ft 159 kts 172°
2026-04-26 13:51 50.62497 -2.43438 3557 ft 159 kts 173°
2026-04-26 13:51 50.61401 -2.43255 3530 ft 158 kts 176°
2026-04-26 13:51 50.60301 -2.43158 3502 ft 158 kts 179°
2026-04-26 13:51 50.59201 -2.43138 3480 ft 158 kts 180°
2026-04-26 13:52 50.58103 -2.43142 3458 ft 158 kts 181°
2026-04-26 13:52 50.57006 -2.43163 3434 ft 157 kts 181°
2026-04-26 13:52 50.55917 -2.43202 3438 ft 157 kts 182°
2026-04-26 13:52 50.54826 -2.43185 3542 ft 156 kts 177°
2026-04-26 13:53 50.53743 -2.43043 3691 ft 156 kts 175°
2026-04-26 13:53 50.52658 -2.42945 3756 ft 156 kts 181°
2026-04-26 13:53 50.51571 -2.43027 3750 ft 157 kts 184°
2026-04-26 13:53 50.50498 -2.43141 3908 ft 151 kts 184°
2026-04-26 13:54 50.49445 -2.43254 4021 ft 152 kts 184°
2026-04-26 13:54 50.48386 -2.43366 4136 ft 152 kts 184°
2026-04-26 13:54 50.47326 -2.43479 4247 ft 153 kts 184°
2026-04-26 13:55 50.45205 -2.43707 4484 ft 153 kts 184°
2026-04-26 13:55 50.44500 -2.43782 4555 ft 154 kts 184°
2026-04-26 13:55 50.42030 -2.44045 4919 ft 150 kts 184°
2026-04-26 13:56 50.40985 -2.44155 5073 ft 152 kts 184°
2026-04-26 13:56 50.39932 -2.44267 5235 ft 152 kts 184°
2026-04-26 13:56 50.38881 -2.44379 5362 ft 151 kts 184°
2026-04-26 13:56 50.37834 -2.44497 5391 ft 151 kts 185°
2026-04-26 13:57 50.36787 -2.44620 5402 ft 151 kts 185°
2026-04-26 13:57 50.35736 -2.44747 5410 ft 151 kts 185°
2026-04-26 13:57 50.34687 -2.44874 5415 ft 151 kts 185°
2026-04-26 13:57 50.33637 -2.45002 5417 ft 152 kts 185°
2026-04-26 13:58 50.32586 -2.45131 5416 ft 151 kts 185°
2026-04-26 13:58 50.31535 -2.45262 5417 ft 152 kts 185°
2026-04-26 13:58 50.30485 -2.45393 5410 ft 152 kts 185°
2026-04-26 13:58 50.29434 -2.45526 5418 ft 151 kts 185°
2026-04-26 13:59 50.28385 -2.45659 5416 ft 151 kts 185°
2026-04-26 13:59 50.27690 -2.45747 5416 ft 151 kts 185°
2026-04-26 13:59 50.26639 -2.45879 5419 ft 152 kts 185°
2026-04-26 14:00 50.23487 -2.46275 5417 ft 152 kts 185°
2026-04-26 14:00 50.22435 -2.46407 5414 ft 152 kts 185°
2026-04-26 14:00 50.21737 -2.46496 5422 ft 152 kts 185°
2026-04-26 14:01 50.20329 -2.46673 5417 ft 152 kts 185°
2026-04-26 14:01 50.19277 -2.46803 5416 ft 152 kts 185°
2026-04-26 14:01 50.18225 -2.46933 5418 ft 152 kts 185°
2026-04-26 14:01 50.17174 -2.47063 5413 ft 152 kts 185°
2026-04-26 14:02 50.16121 -2.47191 5414 ft 152 kts 185°
2026-04-26 14:02 50.15069 -2.47321 5415 ft 152 kts 185°
2026-04-26 14:02 50.14016 -2.47450 5413 ft 152 kts 185°
2026-04-26 14:02 50.12962 -2.47580 5411 ft 152 kts 185°
2026-04-26 14:03 50.11908 -2.47710 5408 ft 152 kts 185°
2026-04-26 14:03 50.10853 -2.47840 5415 ft 152 kts 185°
2026-04-26 14:03 50.09799 -2.47969 5414 ft 152 kts 185°
2026-04-26 14:03 50.08743 -2.47971 5414 ft 153 kts 170°
2026-04-26 14:04 50.07737 -2.47470 5407 ft 151 kts 160°
2026-04-26 14:04 50.06764 -2.46851 5408 ft 151 kts 158°
2026-04-26 14:04 50.05793 -2.46214 5411 ft 151 kts 158°
2026-04-26 14:04 50.04823 -2.45577 5412 ft 151 kts 158°
2026-04-26 14:05 50.03855 -2.44942 5404 ft 151 kts 158°
2026-04-26 14:05 50.02887 -2.44306 5405 ft 151 kts 158°
2026-04-26 14:05 50.01917 -2.43668 5410 ft 151 kts 158°
2026-04-26 14:05 50.00949 -2.43032 5409 ft 151 kts 158°
2026-04-26 14:06 49.99978 -2.42393 5409 ft 151 kts 158°
2026-04-26 14:06 49.99014 -2.41732 5412 ft 152 kts 154°
2026-04-26 14:06 49.98091 -2.40945 5411 ft 151 kts 151°
2026-04-26 14:06 49.97165 -2.40110 5375 ft 160 kts 150°
2026-04-26 14:07 49.96205 -2.39239 5256 ft 159 kts 151°
2026-04-26 14:07 49.95258 -2.38391 5127 ft 159 kts 151°
2026-04-26 14:07 49.94282 -2.37531 5002 ft 159 kts 154°
2026-04-26 14:07 49.93261 -2.36896 4871 ft 159 kts 169°
2026-04-26 14:08 49.92165 -2.36718 4746 ft 158 kts 178°
2026-04-26 14:08 49.91067 -2.36650 4618 ft 158 kts 179°
2026-04-26 14:08 49.89973 -2.36597 4489 ft 157 kts 179°
2026-04-26 14:08 49.88900 -2.36545 4365 ft 156 kts 180°
2026-04-26 14:09 49.87815 -2.36494 4239 ft 156 kts 180°
2026-04-26 14:09 49.86734 -2.36443 4113 ft 155 kts 180°
2026-04-26 14:09 49.85659 -2.36389 3987 ft 154 kts 180°
2026-04-26 14:09 49.84588 -2.36333 3860 ft 154 kts 180°
2026-04-26 14:10 49.83519 -2.36276 3737 ft 153 kts 180°
2026-04-26 14:10 49.82454 -2.36221 3610 ft 153 kts 180°
2026-04-26 14:10 49.81394 -2.36165 3487 ft 152 kts 180°
2026-04-26 14:10 49.80341 -2.36109 3360 ft 151 kts 179°
2026-04-26 14:11 49.78247 -2.36016 3106 ft 150 kts 184°
2026-04-26 14:11 49.77219 -2.36268 2980 ft 150 kts 195°
2026-04-26 14:11 49.76220 -2.36750 2855 ft 150 kts 202°
2026-04-26 14:12 49.75258 -2.37384 2730 ft 150 kts 204°
2026-04-26 14:12 49.74305 -2.38051 2592 ft 150 kts 204°
2026-04-26 14:12 49.73352 -2.38728 2468 ft 151 kts 204°
2026-04-26 14:12 49.72405 -2.39416 2349 ft 150 kts 204°
2026-04-26 14:13 49.70526 -2.40805 2062 ft 150 kts 204°
2026-04-26 14:13 49.69581 -2.41502 2009 ft 151 kts 204°
2026-04-26 14:13 49.68632 -2.42193 1993 ft 151 kts 204°
2026-04-26 14:14 49.67681 -2.42884 1979 ft 151 kts 204°
2026-04-26 14:14 49.66732 -2.43586 1976 ft 151 kts 204°
2026-04-26 14:14 49.65783 -2.44290 1975 ft 151 kts 204°
2026-04-26 14:14 49.64833 -2.44992 1972 ft 151 kts 204°
2026-04-26 14:15 49.63885 -2.45695 1966 ft 152 kts 204°
2026-04-26 14:15 49.62927 -2.46397 1968 ft 152 kts 204°
2026-04-26 14:15 49.61970 -2.47098 1959 ft 152 kts 204°
2026-04-26 14:15 49.61012 -2.47796 1943 ft 152 kts 204°
2026-04-26 14:16 49.60056 -2.48492 1950 ft 152 kts 204°
2026-04-26 14:16 49.59101 -2.49189 1940 ft 152 kts 204°
2026-04-26 14:16 49.58147 -2.49879 1945 ft 152 kts 204°
2026-04-26 14:16 49.57187 -2.50569 1954 ft 152 kts 204°
2026-04-26 14:17 49.56228 -2.51257 1950 ft 152 kts 204°
2026-04-26 14:17 49.55270 -2.51946 1949 ft 151 kts 204°
2026-04-26 14:17 49.54325 -2.52659 1922 ft 152 kts 206°
2026-04-26 14:17 49.53397 -2.53448 1944 ft 153 kts 210°
2026-04-26 14:18 49.52504 -2.54346 1946 ft 154 kts 214°
2026-04-26 14:18 49.51656 -2.55355 1957 ft 154 kts 219°
2026-04-26 14:18 49.50840 -2.56418 1994 ft 152 kts 219°
2026-04-26 14:18 49.50025 -2.57400 2073 ft 150 kts 216°
2026-04-26 14:19 49.49167 -2.58309 2097 ft 152 kts 212°
2026-04-26 14:19 49.48261 -2.59186 2088 ft 155 kts 211°
2026-04-26 14:19 49.47342 -2.60063 2004 ft 155 kts 212°
2026-04-26 14:19 49.46435 -2.60950 2073 ft 155 kts 212°
2026-04-26 14:20 49.45556 -2.61969 1834 ft 161 kts 220°
2026-04-26 14:20 49.44671 -2.63013 1509 ft 154 kts 205°
2026-04-26 14:20 49.43735 -2.63131 1519 ft 127 kts 148°
2026-04-26 14:20 49.43395 -2.61970 1038 ft 140 kts 83°
2026-04-26 14:21 49.43471 -2.60532 685 ft 117 kts 86°
2026-04-26 14:21 49.43504 -2.59571 523 ft 56 kts 85°
2026-04-26 14:21 49.43516 -2.59254 347 ft 9 kts 84°
2026-04-26 14:21 49.43491 -2.59209 346 ft 6 kts 162°
2026-04-26 14:22 49.43445 -2.59199 338 ft 6 kts 179°
2026-04-26 14:22 49.43407 -2.59197 341 ft 5 kts 179°
2026-04-26 14:22 49.43378 -2.59172 337 ft 5 kts 115°
2026-04-26 14:22 49.43355 -2.59130 341 ft 6 kts 168°
2026-04-26 14:23 49.43335 -2.59120 337 ft 0 kts 97°